Wind_Speed
121 121 120 120 121 121 121 120 120 121 121 120 120 120 120 119 119 119 118 118 118 117 117 116 116 115 115 115 114 114 113 113 112 112 112 111 111 111 111 110 110 110 110 110 109 109 109 109 108 108 107 106 106 105 104 104 103 102 102 101 101 101 100 99 99 98 98 97 97 96 96 95 95 94 94 94 93 92 92 91 91 91 90 88 86 84
121 121 121 120 120 121 121 120 120 120 120 120 120 119 119 119 119 118 118 117 116 116 115 114 114 113 113 113 113 113 113 112 112 112 111 111 111 111 110 110 110 110 110 109 109 109 109 109 108 108 108 107 107 106 105 104 104 103 102 102 101 100 100 99 99 98 98 97 96 96 96 95 94 94 94 93 93 92 91 91 91 90 90 88 86 85
121 121 121 120 120 120 121 120 119 119 119 120 119 119 118 118 118 118 117 116 115 114 113 113 112 112 112 112 112 112 112 112 112 112 111 111 111 111 110 110 110 110 110 110 110 109 109 109 108 108 108 108 107 107 106 105 105 104 103 102 101 101 100 100 99 99 98 97 97 96 96 95 94 94 93 93 93 92 91 91 90 90 89 88 87 85
121 121 121 120 119 119 120 119 119 119 118 118 118 118 117 117 117 116 115 115 114 114 113 112 112 112 112 112 112 112 112 112 112 112 112 112 111 111 111 111 110 110 110 110 110 110 109 109 109 108 108 108 108 107 107 106 106 105 104 103 102 102 101 100 100 99 99 98 97 97 96 95 94 94 93 93 92 92 91 90 90 89 89 88 87 86
120 120 120 119 119 119 119 118 118 118 118 118 117 117 116 116 116 115 115 114 114 114 113 113 112 112 112 112 112 112 112 112 112 112 112 112 112 112 112 111 111 111 111 110 110 110 110 109 109 109 108 108 108 108 107 107 106 106 105 104 104 103 102 101 100 100 99 99 98 97 96 95 94 93 93 92 92 91 91 90 89 89 88 87 87 86
119 119 118 118 119 118 118 117 117 117 117 117 116 116 116 115 115 115 115 114 114 114 114 113 113 113 112 112 112 112 112 112 112 112 112 112 112 112 112 112 112 111 111 111 111 110 110 110 109 109 109 108 108 108 108 107 107 106 106 105 105 104 103 102 101 101 100 99 98 98 97 96 95 93 92 92 91 90 90 89 89 88 88 87 86 86
117 117 116 117 117 116 116 116 116 115 116 116 116 115 115 115 115 115 115 115 114 114 114 114 114 113 113 113 113 112 112 112 112 112 112 112 112 112 112 112 112 112 112 111 111 111 111 110 110 110 109 109 109 109 108 108 108 107 107 106 106 105 104 103 102 101 101 100 99 98 97 96 94 93 92 91 90 90 89 88 88 87 87 86 86 86
116 115 115 115 115 115 115 114 114 114 114 115 115 115 115 115 115 115 114 114 114 114 114 114 114 114 114 113 113 113 113 113 112 113 113 113 113 113 112 112 112 112 112 112 111 111 111 111 110 110 110 110 109 109 109 109 108 108 107 106 106 105 104 104 103 102 101 100 98 97 96 95 94 93 91 90 89 89 88 87 87 86 86 86 85 85
114 114 114 113 113 114 114 114 114 113 114 114 115 115 115 115 114 114 114 114 114 114 114 114 114 114 114 114 114 113 113 113 113 113 113 113 113 113 112 112 112 112 112 112 112 112 111 111 111 111 111 110 110 110 109 109 108 108 107 106 105 104 104 103 102 101 100 99 98 97 95 94 93 92 91 89 88 87 87 86 86 85 85 85 85 85
113 113 113 113 112 113 113 114 114 113 113 114 114 114 114 114 114 114 114 114 114 114 114 114 114 115 114 114 114 114 114 114 114 114 113 113 113 113 113 112 112 112 112 112 112 112 112 111 111 111 111 110 110 109 109 108 108 107 106 105 104 103 102 101 100 100 99 97 96 95 94 93 92 90 89 88 87 86 85 85 84 84 84 84 84 84
112 112 112 112 112 112 112 113 113 113 113 113 114 113 113 113 113 113 114 114 114 114 114 114 114 114 115 115 114 114 114 114 114 114 114 114 113 113 113 113 112 112 112 112 112 111 111 111 111 110 110 109 109 108 108 107 106 105 104 104 102 101 100 99 98 97 96 95 94 93 92 91 90 89 88 86 85 84 84 83 83 83 83 82 82 82
111 111 111 112 112 112 112 112 112 112 113 113 113 113 113 113 112 113 113 113 113 113 114 114 114 114 114 115 115 115 115 115 115 115 115 114 114 114 113 113 112 112 111 111 111 110 110 109 109 108 108 107 107 106 106 105 104 103 102 101 100 99 98 97 96 95 94 93 92 91 90 89 88 87 86 85 84 83 82 82 82 81 81 81 81 81
110 111 111 111 111 111 112 112 112 112 112 112 113 113 113 112 112 112 112 113 113 113 113 114 114 114 114 115 115 115 115 115 115 115 115 115 114 114 113 112 112 111 110 109 109 108 108 107 106 106 105 105 104 104 103 103 102 101 100 99 98 97 96 95 94 93 92 91 90 89 88 87 86 85 85 84 82 82 81 81 80 80 80 80 79 79
110 110 110 110 111 111 111 111 111 112 112 112 112 112 112 112 112 112 112 112 113 113 113 113 114 114 114 115 115 115 115 115 115 115 115 114 114 113 112 111 110 109 108 107 107 106 105 105 104 103 103 102 102 101 101 100 100 99 99 98 97 96 95 94 93 92 91 90 89 88 87 86 85 85 84 83 82 81 80 79 79 79 79 78 78 78
109 109 110 110 110 110 110 110 111 111 111 111 111 111 112 112 112 112 112 113 113 113 113 113 113 114 114 114 114 114 114 114 114 113 113 113 112 111 110 109 109 108 107 106 105 104 104 103 102 102 101 101 100 100 99 99 98 98 97 97 96 95 94 93 92 91 90 89 89 88 87 86 85 84 83 82 81 81 80 79 78 78 77 77 77 77
108 109 109 109 109 109 109 110 110 110 110 110 111 111 111 112 112 112 112 113 113 113 113 113 113 113 113 113 113 112 112 111 111 111 110 110 109 109 108 107 107 106 105 105 104 104 103 102 102 101 101 100 100 99 99 98 98 97 97 96 96 95 94 93 92 92 91 90 89 88 87 86 85 84 83 82 82 81 80 79 78 77 77 76 76 76
107 108 108 108 109 109 109 109 109 109 110 110 110 110 111 111 112 112 112 112 112 112 112 112 112 112 112 112 111 110 109 108 108 107 107 106 106 106 106 105 105 105 105 104 104 103 103 103 102 102 101 101 100 100 99 99 98 98 97 96 96 95 94 93 93 92 91 90 89 88 87 87 86 85 84 83 82 81 80 79 78 77 76 76 75 75
107 107 107 108 108 108 108 108 109 109 109 110 110 110 111 111 111 111 112 112 112 111 111 111 110 109 109 109 109 108 107 106 105 105 105 104 105 105 105 104 104 104 104 104 104 104 104 103 103 103 102 102 102 101 101 100 99 98 98 97 96 95 95 94 93 93 92 91 90 90 89 88 87 86 85 84 83 82 81 80 79 78 77 76 75 74
106 106 106 107 107 107 108 108 108 109 109 109 110 110 110 110 110 110 110 110 110 109 109 108 108 107 107 107 107 106 105 104 104 104 103 104 104 104 104 104 104 104 104 104 104 104 104 104 104 104 104 103 103 103 102 102 101 100 99 98 98 97 96 95 94 94 93 92 92 91 90 89 88 87 86 85 84 83 82 81 80 78 77 76 76 75
105 105 105 106 106 106 107 107 108 108 108 108 108 108 109 109 109 108 108 108 107 107 106 105 105 105 105 105 105 105 105 104 103 103 103 103 104 104 105 104 104 105 105 106 106 106 106 106 106 106 105 105 105 105 104 104 103 102 101 100 100 99 98 97 96 95 94 94 93 93 92 91 90 89 88 87 86 84 83 82 81 80 79 77 76 75
104 104 105 105 105 106 106 107 107 107 107 107 106 106 106 106 106 105 105 105 104 104 104 103 104 104 104 104 105 105 105 104 103 103 104 104 104 105 105 105 105 106 106 107 108 108 108 108 108 108 108 108 108 107 107 106 106 105 104 103 102 101 100 99 98 98 97 96 95 94 93 93 92 91 90 89 88 87 85 84 83 81 80 79 78 77
103 103 104 104 104 104 105 105 105 105 104 104 104 103 103 103 102 102 102 102 102 102 102 103 103 104 104 104 105 106 106 105 105 104 105 105 106 107 107 107 107 107 108 109 110 110 110 110 111 111 111 111 111 110 110 109 109 108 107 106 105 104 103 102 101 100 99 98 98 97 96 95 94 93 92 92 90 89 88 86 85 83 82 81 79 78
101 102 102 102 102 103 103 103 102 102 101 101 101 100 100 100 100 100 101 101 101 101 102 103 103 104 105 105 106 107 107 106 106 106 106 106 107 108 109 108 109 109 110 111 112 112 112 113 113 114 114 114 114 114 113 113 112 111 110 109 108 107 106 105 105 103 102 102 100 99 98 97 97 96 95 94 93 92 91 89 88 86 84 83 82 80
100 100 100 100 100 100 99 99 99 99 99 98 98 98 99 99 99 99 100 100 101 102 102 103 104 105 106 107 107 108 108 108 108 108 108 108 109 110 110 110 111 111 112 113 113 114 114 115 115 116 116 116 116 116 116 116 115 115 114 113 112 111 110 109 108 107 106 105 103 102 101 100 99 98 97 96 95 94 93 92 90 89 87 85 84 83
98 98 97 97 97 97 97 97 97 97 97 97 97 97 98 98 99 100 100 101 102 102 103 104 105 106 108 108 109 110 111 111 110 110 110 110 111 112 112 112 113 113 114 115 115 115 116 117 117 118 118 118 118 118 118 118 118 117 117 116 115 114 113 112 111 110 109 108 106 105 104 103 102 101 100 99 98 97 96 95 93 92 90 88 87 85
95 95 94 94 94 94 94 95 95 95 96 96 97 97 98 99 100 101 102 103 103 104 105 106 107 109 110 110 111 113 113 113 113 112 112 112 113 114 114 114 115 115 116 117 117 117 118 118 119 119 119 120 120 120 120 120 120 119 119 119 118 117 116 115 114 113 112 110 109 108 107 106 105 104 103 102 101 100 98 97 96 94 93 91 90 88
92 92 92 92 92 93 93 94 94 95 96 96 97 98 99 100 101 103 104 105 106 106 107 108 110 111 112 113 114 115 115 116 115 115 114 114 115 116 116 116 116 116 117 117 118 118 118 119 120 120 120 120 120 121 121 121 121 121 121 120 120 119 118 117 116 115 114 113 112 111 110 109 108 107 106 105 104 102 101 100 98 97 96 94 93 91
90 90 90 91 91 92 93 94 95 96 97 98 99 100 101 102 103 105 106 107 108 108 110 111 112 113 113 114 115 116 117 117 117 116 115 115 116 116 117 117 116 116 117 117 117 118 118 119 119 120 120 120 120 120 120 121 121 121 121 120 120 120 119 119 118 117 116 115 114 113 112 111 110 109 108 107 106 105 104 102 101 100 98 97 95 94
88 89 89 90 91 92 93 94 96 97 98 99 101 102 103 104 105 106 108 108 109 110 111 112 113 113 114 115 116 117 117 117 117 116 115 115 115 116 116 116 115 115 115 115 115 115 116 116 117 117 117 118 118 118 119 119 119 119 119 119 119 119 119 119 118 117 116 116 115 114 113 112 111 111 110 109 108 107 106 105 104 102 101 99 98 97
88 89 90 91 92 93 94 96 97 99 100 101 102 103 104 105 106 107 108 109 110 110 111 112 113 113 113 114 115 115 116 116 115 114 113 113 113 113 113 113 113 112 112 112 111 112 112 113 113 113 113 114 114 115 115 116 116 116 116 117 117 117 117 117 117 117 116 115 115 114 113 112 112 111 110 110 109 108 108 107 106 104 103 102 100 99
89 90 91 92 94 95 96 98 99 101 102 103 104 105 106 106 107 108 109 109 110 110 111 111 111 112 111 112 112 113 113 112 111 110 109 109 109 110 109 109 109 109 108 108 108 108 108 109 109 109 109 109 110 110 111 111 112 112 112 113 113 114 114 114 114 114 114 114 113 113 112 112 111 111 110 109 109 109 108 108 107 106 105 104 102 101
90 92 93 95 96 97 99 100 101 102 103 104 105 106 107 107 108 108 109 109 109 109 109 110 110 109 109 109 109 109 109 109 108 106 106 105 106 106 106 106 106 106 105 104 104 104 104 105 105 105 105 105 105 106 106 106 107 107 108 108 109 110 110 110 111 111 111 111 111 111 111 110 110 109 109 108 108 108 108 107 107 106 106 105 104 103
92 94 95 97 98 99 101 102 103 104 105 106 106 107 108 108 108 108 108 108 108 108 108 108 108 107 107 106 106 106 106 105 104 103 102 102 102 103 102 102 102 102 102 101 101 100 100 101 101 101 101 102 102 102 102 102 102 102 103 103 104 105 105 106 106 106 107 107 108 108 108 108 107 107 107 106 106 106 106 106 106 106 105 105 105 104
94 95 97 98 100 101 102 103 104 105 106 107 107 108 108 108 108 108 108 107 107 107 106 106 106 105 105 104 103 103 103 102 101 100 99 99 99 99 99 99 99 99 98 98 98 97 97 97 98 98 98 98 98 98 98 98 98 98 98 99 100 100 101 101 101 102 102 103 103 104 104 104 104 104 104 104 104 104 104 104 104 104 104 104 104 104
95 97 98 99 101 102 103 104 105 106 106 107 107 107 108 107 107 107 107 106 106 105 104 104 103 102 102 101 101 100 100 99 98 97 96 96 96 96 96 96 96 95 95 95 95 95 95 95 94 94 95 95 95 95 95 94 94 94 95 95 95 96 96 97 97 97 98 98 99 99 100 100 100 101 101 101 101 101 101 101 101 102 102 102 102 103
96 98 99 100 101 103 104 105 105 106 106 107 107 107 107 107 106 106 105 104 104 103 102 101 100 100 99 98 98 97 97 96 95 95 94 93 93 93 93 93 93 92 92 92 92 92 92 92 92 91 92 92 92 92 92 91 91 91 91 92 92 92 93 93 93 93 94 94 95 95 96 96 96 97 97 98 98 98 98 99 99 99 99 100 100 101
97 98 100 101 102 103 104 105 106 106 106 106 106 106 106 105 104 104 103 102 101 101 100 99 98 97 96 95 94 94 93 93 93 92 91 91 91 90 90 90 90 90 89 89 89 89 89 89 89 88 88 88 89 89 89 88 88 88 88 88 89 89 89 89 89 90 90 90 91 91 92 92 93 93 94 94 94 95 95 96 96 96 97 97 97 98
98 99 100 102 103 104 104 105 106 106 106 106 105 105 104 103 103 102 101 100 99 98 98 97 96 95 94 93 92 91 91 90 90 89 89 88 88 88 87 87 87 86 86 86 86 86 85 85 85 85 85 85 85 85 85 85 85 85 85 85 85 86 86 86 86 86 87 87 88 88 88 89 89 90 90 91 91 92 92 93 93 93 94 94 95 95
99 100 101 102 103 104 105 105 106 106 105 105 104 103 102 101 101 100 99 98 97 96 96 95 94 93 92 91 90 89 88 88 87 87 86 85 85 84 84 84 84 83 83 83 82 82 82 82 82 82 82 82 82 82 82 82 82 82 82 82 82 83 83 83 83 83 84 84 84 85 85 86 86 86 87 87 88 88 89 90 90 91 91 92 92 92
100 101 102 103 104 104 105 105 105 104 104 103 102 101 100 99 99 98 97 96 95 95 94 93 92 92 91 89 88 87 87 86 85 84 83 83 82 82 81 81 81 80 80 80 79 79 79 79 78 78 78 78 78 78 78 78 78 78 78 79 79 80 80 80 80 80 81 81 81 82 82 82 83 83 84 84 85 85 86 87 87 88 88 89 90 90
100 102 103 103 104 104 104 104 103 102 102 101 100 99 98 97 96 96 95 95 94 93 92 92 91 90 89 88 87 85 85 84 83 82 81 81 80 79 79 79 78 78 77 77 76 76 76 75 75 74 74 74 74 74 74 74 74 75 75 75 76 76 77 77 78 78 78 78 78 78 79 79 79 80 80 81 82 82 83 84 84 85 86 86 87 88
101 102 103 103 104 103 103 102 101 100 99 98 97 96 95 94 94 94 94 93 92 91 91 90 89 88 87 86 84 83 82 81 80 80 79 79 78 77 77 76 76 75 75 74 74 73 73 72 72 71 71 70 70 70 70 71 71 71 72 72 72 73 73 74 74 75 74 74 74 75 75 76 76 77 77 78 79 79 80 81 82 83 83 84 84 85
101 102 103 103 102 102 101 100 98 97 96 95 94 93 92 92 91 91 91 91 90 90 89 88 87 86 85 84 82 81 80 79 78 77 77 76 76 75 74 74 73 72 72 71 71 70 70 69 69 68 67 67 66 66 67 67 68 68 68 69 69 69 70 70 71 71 71 71 71 71 72 72 73 73 74 75 76 77 78 78 79 80 80 81 82 83
101 101 101 101 100 99 98 97 95 94 93 92 91 90 90 89 89 89 89 88 88 87 86 85 84 83 82 81 80 79 78 77 76 75 74 74 73 73 72 71 71 70 69 69 68 68 67 67 66 65 64 64 63 64 64 64 65 65 65 65 65 66 66 66 67 67 67 67 67 68 68 68 69 70 71 72 73 74 75 76 76 77 78 79 79 80
100 100 99 98 97 96 94 93 92 91 90 89 88 87 87 86 86 86 86 86 85 85 84 83 82 81 80 79 78 77 76 74 73 72 72 71 71 70 70 69 68 68 67 67 66 66 65 64 63 62 62 61 61 61 61 62 62 62 62 62 62 62 62 63 63 63 64 64 64 64 65 65 65 66 68 69 70 71 72 73 74 74 75 76 77 78
98 97 96 95 93 92 91 90 89 88 87 86 86 85 84 84 84 83 83 83 82 82 81 80 79 78 78 77 76 75 74 72 71 70 69 69 68 67 67 66 66 65 65 64 64 63 62 61 61 60 59 58 58 59 59 59 59 59 59 59 59 59 59 60 60 60 60 60 61 61 61 61 62 63 64 65 67 68 69 70 71 72 73 73 74 75
95 94 92 91 90 89 88 87 86 86 85 84 83 83 82 81 81 81 80 80 80 79 78 77 77 76 75 74 73 72 71 70 69 68 67 66 66 65 64 64 63 63 62 62 61 60 59 59 58 57 56 56 56 56 56 56 56 56 56 56 56 57 57 57 57 57 57 57 57 58 58 58 59 60 61 62 63 65 66 67 68 69 70 71 71 72
92 90 89 88 87 86 85 85 84 83 83 82 81 80 80 79 78 78 78 77 77 76 76 75 74 73 72 71 70 70 69 68 67 66 65 64 63 63 62 61 61 60 60 59 58 58 57 56 55 54 53 53 53 53 54 53 53 53 53 54 54 54 54 54 54 53 53 54 54 54 54 55 56 56 57 59 60 62 63 64 65 66 67 68 69 69
88 87 86 85 84 84 83 82 82 81 81 80 79 78 77 77 76 75 75 75 74 73 73 72 71 70 69 69 68 67 66 66 65 64 63 62 61 60 60 59 58 58 57 56 56 55 54 53 52 51 50 50 50 51 51 51 51 51 51 51 51 51 51 51 51 51 50 50 50 51 51 52 52 53 54 55 57 58 60 61 62 63 64 65 65 66
85 84 83 83 82 81 81 80 80 79 79 78 77 76 75 74 74 73 72 72 71 70 70 69 68 67 67 66 65 64 64 63 62 61 61 60 59 58 58 57 56 55 55 54 53 53 52 51 50 49 48 47 47 48 48 48 48 48 48 48 48 48 49 49 48 48 48 47 47 47 48 48 49 50 51 52 54 55 57 58 59 60 61 61 62 63
83 82 81 80 80 79 79 79 78 78 77 76 75 74 73 72 71 70 70 69 68 68 67 66 65 64 64 63 62 62 61 60 60 59 58 58 57 56 56 55 54 54 53 52 51 51 50 49 48 46 45 44 44 45 46 46 46 46 45 45 45 46 46 46 46 46 45 45 44 44 44 45 46 46 48 49 50 52 53 55 56 56 57 58 59 60
Wind_Direction
280 280 281 281 281 282 282 282 283 283 283 284 284 284 284 284 284 284 283 283 283 283 283 283 283 283 283 284 284 284 284 284 284 284 284 284 284 285 285 285 285 285 285 285 285 285 285 285 285 285 285 285 285 284 284 284 284 283 283 283 283 283 283 283 283 283 283 283 283 283 283 283 283 282 282 282 282 282 282 282 282 282 282 282 282 281
280 280 280 281 281 281 282 282 282 283 283 283 283 283 283 283 283 283 282 282 282 282 282 283 283 283 283 283 284 284 284 284 284 284 284 284 284 284 285 285 285 285 285 285 285 285 285 285 285 285 285 285 284 284 284 284 283 283 283 283 283 282 282 282 282 282 282 282 282 282 281 281 281 281 281 281 281 281 281 280 280 280 280 281 280 280
279 280 280 280 281 281 281 282 282 282 282 282 282 282 282 282 282 282 282 282 282 282 283 283 283 283 283 284 284 284 284 284 284 284 285 285 285 285 285 285 285 285 284 284 284 284 284 284 284 284 284 284 284 284 284 283 283 283 283 282 282 282 282 282 281 281 281 281 281 280 280 280 280 280 280 279 279 279 279 279 279 279 279 279 279 278
279 280 280 280 281 281 281 281 282 282 282 282 282 282 282 282 282 282 282 282 283 283 283 283 283 284 284 284 284 284 284 284 284 285 285 285 285 285 285 284 284 284 284 284 284 284 284 284 284 283 283 283 283 283 283 283 283 283 282 282 282 281 281 281 281 281 280 280 280 279 279 279 279 279 278 278 278 278 278 278 277 277 277 277 277 276
279 279 280 280 280 281 281 281 281 281 281 281 281 281 281 282 282 282 283 283 283 283 284 284 284 284 284 284 284 284 284 284 284 284 285 285 285 284 284 284 284 284 284 284 284 284 283 283 283 283 283 283 283 283 283 282 282 282 282 282 281 281 281 280 280 280 280 279 279 279 278 278 278 277 277 277 277 276 276 276 276 276 276 275 275 275
279 279 279 280 280 280 280 280 281 281 281 281 281 281 282 282 282 283 283 283 284 284 284 284 284 284 284 284 284 284 284 284 284 284 284 284 284 284 284 284 284 284 284 283 283 283 283 283 283 283 283 283 282 282 282 282 282 282 282 281 281 281 281 280 280 279 279 279 278 278 278 277 277 276 276 276 275 275 275 275 274 274 274 274 273 273
278 279 279 279 279 280 280 280 280 281 281 281 281 282 282 282 283 283 283 284 284 284 284 285 285 285 285 285 284 284 284 284 284 284 284 284 284 284 284 284 284 283 283 283 283 283 283 283 283 283 282 282 282 282 282 282 281 281 281 281 281 280 280 280 279 279 279 278 278 277 277 277 276 276 275 275 274 274 274 273 273 273 272 272 272 271
278 278 279 279 279 280 280 280 280 281 281 281 282 282 282 283 283 283 284 284 284 284 285 285 285 285 285 284 284 284 284 284 284 284 284 283 283 283 283 283 283 283 283 283 283 283 283 283 283 282 282 282 282 282 281 281 281 281 281 280 280 280 280 279 279 279 278 278 277 277 277 276 276 275 274 274 273 273 272 272 272 271 271 270 270 269
278 279 279 279 280 280 280 281 281 281 281 282 282 282 282 283 283 284 284 284 284 284 284 284 285 284 284 284 284 284 284 284 284 284 283 283 283 283 283 283 283 283 283 283 283 283 283 283 282 282 282 282 282 281 281 281 281 280 280 280 280 279 279 279 279 278 278 278 277 277 276 276 275 275 274 273 273 272 271 271 270 270 269 269 268 268
279 279 279 280 280 280 281 281 281 281 282 282 282 282 282 283 283 284 284 284 284 284 284 284 284 284 284 284 284 284 284 284 284 284 284 283 283 283 283 283 283 283 283 283 283 283 283 282 282 282 282 282 281 281 281 281 280 280 280 280 279 279 279 278 278 278 278 277 277 276 276 275 275 274 273 273 272 271 270 270 269 268 268 267 267 266
279 280 280 280 280 281 281 281 281 282 282 282 282 283 283 283 283 283 284 284 284 284 284 284 284 284 284 284 285 284 284 284 284 284 284 284 283 283 283 283 283 283 283 283 283 282 282 282 282 282 281 281 281 281 281 280 280 280 280 279 279 279 278 278 278 277 277 277 276 276 275 275 274 274 273 272 271 270 270 269 268 267 267 266 266 265
280 280 280 280 281 281 281 281 281 282 282 282 282 283 283 283 283 283 283 284 284 284 284 284 284 284 285 285 285 285 284 284 284 284 284 284 284 283 283 283 283 283 283 282 282 282 282 282 281 281 281 281 281 280 280 280 280 280 279 279 279 278 278 278 277 277 277 276 276 276 275 274 274 273 272 272 271 270 269 268 267 266 266 265 265 264
280 280 280 280 281 281 281 282 282 282 282 282 283 283 283 283 284 284 284 284 284 284 284 284 284 284 285 284 284 284 284 284 284 284 284 284 284 284 283 283 283 283 282 282 282 282 281 281 281 281 280 280 280 280 280 280 279 279 279 279 278 278 278 277 277 277 276 276 275 275 275 274 273 273 272 271 270 269 268 267 267 266 265 264 264 263
280 280 280 281 281 281 282 282 282 282 283 283 283 283 283 284 284 284 284 284 284 284 284 284 284 284 284 284 284 284 284 284 284 284 284 284 284 284 284 283 283 283 282 282 282 281 281 281 280 280 280 279 279 279 279 279 279 279 278 278 278 278 277 277 277 276 276 275 275 274 274 273 273 272 271 271 270 269 268 267 266 265 265 264 263 263
280 280 281 281 281 282 282 282 282 283 283 283 283 284 284 284 284 284 284 284 284 284 284 284 284 284 284 284 284 284 284 284 284 284 284 284 284 284 284 283 283 283 282 282 282 281 281 280 280 280 279 279 279 278 278 278 278 278 278 278 277 277 277 277 276 276 275 275 274 274 273 273 272 272 271 270 269 269 268 267 266 265 264 264 263 262
280 281 281 281 282 282 282 283 283 283 283 283 284 284 284 284 284 284 284 284 284 284 284 284 284 283 283 283 283 283 283 283 283 283 283 284 284 284 283 283 283 283 282 282 282 281 281 281 280 280 279 279 279 278 278 278 278 277 277 277 277 277 277 276 276 276 275 275 274 273 273 272 272 271 271 270 269 268 268 267 266 265 264 264 263 262
281 281 281 282 282 283 283 283 283 283 284 284 284 284 284 284 284 284 284 284 284 284 284 283 283 283 283 283 283 283 283 283 283 283 283 283 283 283 283 283 283 283 283 282 282 282 282 281 281 280 280 280 279 279 278 278 277 277 277 277 276 276 276 276 275 275 275 274 274 273 273 272 271 271 270 270 269 268 268 267 266 265 264 263 263 262
281 282 282 282 283 283 283 283 284 284 284 284 284 284 284 284 284 284 284 284 284 284 284 284 284 284 283 283 283 283 283 283 283 283 283 283 283 283 283 283 283 283 283 282 282 282 282 281 281 281 280 280 279 279 278 278 277 277 277 276 276 276 275 275 275 275 274 274 274 273 272 272 271 271 270 269 269 268 267 267 266 265 264 263 262 262
282 282 283 283 283 283 284 284 284 284 284 284 284 284 284 284 284 284 284 284 284 284 284 284 284 284 284 284 284 284 284 284 284 283 283 283 283 283 283 283 283 283 282 282 282 282 281 281 281 280 280 280 279 279 278 278 277 277 276 276 275 275 275 274 274 274 273 273 273 272 272 271 271 270 270 269 268 268 267 266 266 265 264 263 262 261
282 283 283 283 283 283 283 284 284 284 284 284 284 284 284 284 285 285 285 285 285 285 285 285 285 284 284 284 284 284 284 284 284 283 283 283 283 283 283 283 282 282 282 282 281 281 281 281 280 280 279 279 279 278 278 277 277 276 276 275 275 274 274 273 273 272 272 272 271 271 271 271 270 270 269 268 268 267 266 266 265 264 263 263 262 261
282 283 283 283 283 283 284 284 284 284 284 284 284 285 285 285 285 285 285 285 285 285 285 285 285 285 285 284 284 284 284 284 283 283 283 283 283 283 282 282 282 282 282 281 281 281 281 280 280 280 279 279 278 278 277 277 277 276 276 275 274 274 273 273 272 272 271 270 270 270 269 269 269 269 268 268 267 267 266 265 264 264 263 262 261 261
283 283 283 283 283 284 284 284 284 284 285 285 285 285 285 285 285 285 285 285 285 285 285 285 285 285 285 284 284 284 284 283 283 283 283 283 282 282 282 282 282 281 281 281 281 281 280 280 280 279 279 278 278 278 277 277 276 276 275 275 274 274 273 272 272 271 270 270 269 269 268 268 267 267 267 267 266 266 265 264 264 263 262 261 261 260
283 283 283 284 284 284 284 284 285 285 285 285 285 285 285 285 285 285 285 285 285 285 285 285 285 284 284 284 284 284 283 283 283 283 282 282 282 282 282 281 281 281 280 280 280 280 279 279 279 279 278 278 278 277 277 277 276 276 275 275 274 273 273 272 271 271 270 269 269 268 267 267 266 266 266 265 265 265 264 264 263 262 262 261 260 259
283 284 284 284 284 284 285 285 285 285 285 285 285 285 285 285 285 285 285 285 285 285 285 285 284 284 284 284 284 283 283 283 283 282 282 282 281 281 281 281 280 280 279 279 279 279 278 278 278 278 277 277 277 277 277 276 276 276 275 275 274 273 273 272 271 271 270 269 268 268 267 266 266 265 264 264 264 263 263 263 262 261 261 260 259 259
284 284 284 285 285 285 285 285 285 285 285 285 285 285 285 285 285 285 285 285 285 285 285 285 285 284 284 284 284 284 283 283 283 282 282 282 281 281 280 280 279 279 279 278 278 278 277 277 277 276 276 276 276 276 276 275 275 275 275 274 274 273 273 272 271 271 270 269 269 268 267 266 266 265 264 263 263 262 262 261 261 260 260 259 258 258
285 285 285 285 285 285 286 286 286 286 286 286 286 286 286 286 286 286 286 286 286 286 286 285 285 285 285 285 284 284 284 284 283 283 282 282 281 281 280 280 279 278 278 278 277 277 276 276 276 275 275 275 275 275 275 274 274 274 274 274 273 273 273 272 272 271 270 270 269 268 267 266 266 265 264 263 263 262 261 261 260 259 259 258 258 257
286 286 286 286 286 286 287 287 287 287 287 287 287 287 287 287 287 287 287 287 287 287 286 286 286 285 285 285 285 284 284 284 284 283 283 282 281 280 280 279 279 278 277 277 277 276 276 275 275 275 274 274 274 274 273 273 273 273 273 273 273 272 272 272 271 271 270 270 269 268 267 267 266 265 264 263 263 262 261 260 259 259 258 257 257 256
287 287 287 287 287 288 288 288 288 288 288 288 288 288 288 288 288 288 287 287 287 287 286 286 286 285 285 285 284 284 284 284 283 283 283 282 281 280 280 279 279 278 277 277 276 276 275 275 274 274 274 273 273 273 273 272 272 272 272 272 272 272 271 271 271 270 270 269 269 268 267 267 266 265 264 263 263 262 261 260 259 258 258 257 256 255
288 288 288 289 289 289 289 289 289 289 289 289 289 288 288 288 287 287 287 287 287 286 286 285 285 285 284 284 284 284 283 283 283 283 283 282 281 280 280 280 279 278 277 277 276 276 275 275 274 274 273 273 273 272 272 272 271 271 271 271 271 271 271 270 270 270 270 269 269 268 267 267 266 265 264 264 263 262 261 260 260 259 258 257 256 255
289 289 290 290 290 290 290 290 290 289 289 289 288 288 288 287 287 287 287 286 286 286 285 285 285 284 284 284 284 283 283 283 283 283 283 282 282 281 281 280 279 279 278 278 277 276 276 275 275 274 273 273 272 272 272 271 271 271 271 270 270 270 270 270 270 269 269 269 268 268 267 267 266 265 264 263 263 262 261 260 260 259 258 257 256 255
291 291 291 291 291 290 290 290 289 289 289 289 288 288 288 288 287 287 287 286 286 286 286 285 285 285 285 284 284 284 284 284 284 284 283 283 282 282 282 281 280 280 279 279 278 277 277 276 276 275 274 273 273 272 272 271 271 271 270 270 270 269 269 269 269 269 269 268 268 268 267 267 266 265 264 264 263 262 261 260 260 259 258 257 256 255
292 292 292 292 291 291 291 290 290 290 290 289 289 289 289 289 288 288 288 288 288 287 287 287 287 287 286 286 286 286 285 285 285 285 285 284 284 283 282 282 281 281 280 280 279 278 278 277 277 276 275 274 274 273 272 272 271 271 270 270 270 269 269 269 268 268 268 268 268 267 267 267 266 265 265 264 263 262 261 260 260 259 258 257 256 255
293 293 292 292 292 292 292 291 291 291 291 291 291 291 291 290 290 290 290 290 290 290 289 289 289 289 288 288 288 287 287 287 287 286 286 285 285 284 283 283 282 282 281 281 280 279 279 278 277 277 276 276 275 274 273 273 272 271 271 270 270 269 269 269 268 268 268 267 267 267 267 266 266 265 265 264 263 262 261 261 260 259 258 257 256 255
293 293 293 293 293 293 293 293 293 293 293 293 293 292 292 292 292 292 292 292 292 291 291 291 291 290 290 290 289 289 288 288 288 287 287 286 285 285 284 284 283 283 282 282 281 280 280 279 278 278 277 276 276 275 274 274 273 272 271 271 270 270 269 269 268 268 267 267 267 266 266 266 265 265 265 264 263 263 262 261 260 259 258 257 256 255
294 294 294 294 294 294 294 294 294 294 294 294 294 294 294 294 294 294 294 293 293 293 292 292 292 291 291 291 290 290 289 289 289 288 287 287 286 285 285 284 284 283 283 282 282 281 280 280 279 278 278 277 277 276 275 274 274 273 272 271 271 270 269 269 268 268 267 267 266 266 266 265 265 264 264 264 263 262 262 261 260 259 258 257 256 255
295 295 295 295 295 296 296 296 296 296 296 296 296 296 296 296 295 295 295 294 294 294 293 293 292 292 291 291 291 291 290 290 289 289 288 287 287 286 286 285 284 284 283 283 282 281 281 280 280 279 278 277 277 276 276 275 274 273 272 272 271 270 269 269 268 268 267 267 266 265 265 264 264 264 263 263 262 262 261 260 260 259 258 257 256 254
296 297 297 297 297 297 297 297 297 297 297 297 297 297 297 297 296 296 296 295 295 294 294 294 293 293 292 292 291 291 291 290 290 289 289 288 288 287 286 286 285 284 284 283 282 282 281 280 280 279 278 278 277 276 276 275 274 274 273 272 271 270 270 269 268 268 267 266 266 265 264 264 263 263 262 262 261 261 260 260 259 258 257 256 255 254
298 298 298 299 299 299 299 299 299 299 299 299 298 298 298 298 297 297 297 296 296 295 295 294 294 294 293 293 293 292 292 291 291 290 290 289 289 288 287 286 286 285 284 283 283 282 281 280 280 279 278 278 277 277 276 275 275 274 273 273 272 271 270 270 269 268 267 266 265 265 264 263 263 262 261 261 260 260 259 259 258 257 257 256 255 254
300 300 300 300 300 300 300 300 300 300 300 299 299 299 299 298 298 298 297 297 297 296 296 296 295 295 295 294 294 293 293 292 292 291 291 290 289 289 288 287 286 286 285 284 283 282 282 281 280 280 279 278 278 277 277 276 275 275 274 273 273 272 271 270 269 268 267 266 265 265 264 263 262 262 261 260 260 259 258 258 257 256 256 255 254 253
302 302 302 302 302 302 301 301 301 301 300 300 300 300 299 299 299 298 298 298 297 297 297 296 296 296 296 296 295 295 294 294 293 293 292 291 290 290 289 288 287 287 286 285 284 284 283 282 281 281 280 280 279 278 278 277 276 275 275 274 273 272 271 270 269 268 267 266 265 265 264 263 262 262 261 260 259 259 258 257 257 256 255 254 253 252
303 303 303 303 302 302 302 302 301 301 301 301 300 300 300 300 299 299 299 298 298 298 298 297 297 297 297 297 296 296 295 295 295 294 293 292 292 291 290 289 288 288 287 287 286 285 284 284 283 282 281 281 280 279 278 278 277 276 274 273 272 272 271 270 269 268 267 266 266 265 264 263 263 262 261 261 260 259 258 257 256 255 254 253 253 252
304 304 304 303 303 303 302 302 302 301 301 301 301 300 300 300 300 299 299 299 299 298 298 298 298 298 298 297 297 297 296 296 295 295 294 293 293 292 291 290 290 289 289 288 287 287 286 285 284 283 282 282 281 280 279 278 277 276 275 273 272 272 271 270 270 269 268 267 266 265 265 264 263 262 262 261 260 259 258 257 256 255 254 253 252 251
305 304 304 303 303 303 302 302 302 302 301 301 301 301 300 300 300 300 299 299 299 299 299 299 299 299 299 298 298 298 297 297 296 296 295 294 294 293 292 292 291 291 290 289 288 288 287 286 285 284 283 283 282 281 280 279 277 276 275 274 273 272 271 271 270 270 269 268 267 266 265 264 263 262 261 261 260 259 258 257 256 255 254 253 252 251
305 304 304 304 303 303 302 302 302 302 301 301 301 301 301 301 300 300 300 300 300 300 300 300 300 300 299 299 299 299 298 297 297 296 296 295 294 294 293 293 292 292 291 290 289 289 288 287 286 286 285 284 283 282 280 279 278 277 276 275 274 273 272 272 271 270 269 268 267 266 265 264 263 262 261 260 259 259 258 257 256 255 254 253 252 251
305 304 304 304 303 303 302 302 302 302 302 302 301 301 301 301 301 301 301 301 301 301 301 301 301 300 300 300 300 299 299 298 298 297 296 296 295 295 294 294 293 292 292 291 290 290 289 288 288 287 286 285 284 283 281 280 279 278 277 276 275 274 273 272 272 271 270 269 268 266 265 264 263 262 261 260 259 258 257 257 256 255 254 253 251 250
305 304 304 304 303 303 303 303 302 302 302 302 302 302 302 302 302 302 302 302 302 302 301 301 301 301 301 301 300 300 299 299 298 298 297 296 296 295 295 294 294 293 293 292 291 291 290 289 289 288 287 286 285 283 282 281 280 279 278 278 277 275 274 273 272 271 270 269 268 267 266 265 263 262 261 260 259 258 257 256 255 254 253 252 251 250
305 305 304 304 304 303 303 303 303 303 303 303 303 303 303 303 303 303 303 303 302 302 302 302 302 302 301 301 301 300 300 299 299 298 298 297 296 296 296 295 294 294 293 293 292 292 291 290 290 289 288 287 286 284 283 282 281 280 279 278 277 276 275 274 273 272 271 270 269 268 267 265 264 262 261 260 259 258 257 256 255 254 253 252 251 250
305 305 305 305 304 304 304 304 304 304 304 304 305 305 305 305 304 304 304 303 303 303 303 303 302 302 302 301 301 301 300 300 299 299 298 298 297 297 296 296 295 295 294 294 293 292 292 291 290 290 289 288 287 286 285 284 283 282 281 280 279 278 276 275 274 273 272 271 270 269 267 266 264 263 262 260 259 258 257 256 255 254 253 252 251 250
306 306 306 305 305 305 305 305 305 305 306 306 306 306 306 306 305 305 305 304 304 304 303 303 303 302 302 302 301 301 301 300 300 300 299 299 298 298 297 297 296 296 295 294 294 293 293 292 291 290 290 289 288 287 286 285 284 283 281 281 280 279 278 276 275 274 273 272 270 269 268 267 265 264 262 261 259 258 257 256 255 254 253 253 252 250
307 307 307 307 306 306 306 307 307 307 307 307 307 307 307 307 307 306 306 305 305 304 304 304 303 303 302 302 302 301 301 301 300 300 300 300 299 299 298 298 297 297 296 296 295 294 294 293 292 291 290 289 289 288 286 285 284 283 282 281 281 280 279 278 277 275 274 273 271 270 269 267 266 264 263 261 260 259 258 256 255 254 254 253 252 251
308 308 308 308 308 308 308 308 308 308 308 309 309 309 308 308 308 307 307 306 306 305 305 304 304 303 303 302 302 302 302 301 301 301 301 301 300 300 300 299 299 298 298 297 297 296 295 294 293 292 291 290 289 288 287 286 285 284 283 282 281 280 280 279 278 277 275 274 272 271 269 268 266 265 263 262 260 259 258 257 256 255 254 253 252 251
Height
10568 10566 10565 10565 10564 10561 10559 10557 10556 10556 10555 10551 10550 10549 10548 10546 10543 10541 10540 10539 10538 10536 10535 10534 10533 10531 10530 10528 10526 10524 10523 10521 10520 10518 10517 10515 10514 10512 10511 10509 10508 10506 10505 10504 10503 10501 10500 10499 10498 10497 10496 10496 10496 10496 10496 10495 10495 10495 10495 10495 10494 10493 10493 10493 10492 10492 10492 10492 10492 10491 10491 10490 10490 10490 10490 10490 10491 10491 10491 10491 10491 10491 10491 10493 10495 10496
10561 10559 10558 10557 10556 10555 10552 10550 10549 10549 10548 10545 10542 10540 10540 10538 10535 10532 10530 10530 10529 10528 10527 10526 10525 10524 10522 10520 10518 10516 10514 10512 10511 10510 10508 10506 10505 10504 10502 10501 10500 10498 10497 10495 10494 10493 10492 10491 10490 10488 10487 10486 10486 10486 10485 10485 10485 10485 10485 10485 10485 10485 10485 10485 10484 10484 10484 10484 10484 10484 10483 10483 10483 10483 10483 10483 10484 10484 10484 10484 10484 10484 10484 10485 10486 10488
10553 10552 10550 10549 10549 10548 10546 10543 10541 10541 10540 10538 10535 10533 10531 10529 10526 10523 10521 10520 10520 10519 10518 10518 10517 10516 10514 10512 10510 10508 10506 10504 10502 10501 10499 10498 10496 10495 10493 10492 10491 10489 10488 10486 10485 10484 10483 10482 10481 10480 10479 10478 10476 10476 10475 10475 10475 10475 10475 10475 10475 10476 10476 10476 10476 10475 10475 10475 10476 10476 10476 10476 10476 10476 10476 10476 10476 10476 10477 10476 10476 10477 10477 10478 10479 10480
10546 10545 10543 10541 10540 10540 10538 10536 10534 10533 10531 10530 10527 10525 10523 10520 10518 10515 10513 10513 10511 10510 10509 10508 10508 10507 10506 10504 10502 10500 10498 10496 10494 10492 10490 10488 10487 10485 10484 10483 10481 10480 10479 10478 10476 10475 10474 10473 10472 10471 10470 10469 10468 10467 10466 10466 10465 10465 10465 10465 10466 10466 10466 10466 10466 10466 10466 10466 10466 10467 10467 10468 10468 10468 10468 10469 10469 10469 10469 10469 10470 10470 10470 10470 10471 10472
10538 10537 10536 10533 10532 10531 10529 10528 10526 10525 10523 10521 10518 10516 10514 10512 10510 10508 10506 10505 10503 10502 10500 10499 10498 10498 10496 10495 10493 10491 10490 10488 10486 10483 10481 10480 10478 10476 10475 10473 10471 10470 10470 10468 10467 10466 10465 10463 10463 10462 10461 10460 10459 10458 10457 10456 10456 10455 10455 10455 10455 10456 10456 10456 10457 10457 10457 10457 10458 10458 10458 10459 10460 10460 10461 10461 10461 10461 10461 10461 10462 10462 10463 10463 10464 10465
10530 10530 10528 10527 10525 10523 10521 10520 10518 10516 10515 10512 10510 10508 10506 10504 10502 10500 10498 10496 10495 10493 10492 10490 10489 10488 10486 10485 10484 10483 10481 10479 10477 10475 10472 10470 10468 10466 10465 10463 10462 10461 10460 10458 10458 10456 10455 10454 10453 10453 10451 10451 10450 10449 10448 10447 10446 10446 10446 10446 10445 10446 10446 10446 10447 10447 10448 10448 10448 10449 10450 10450 10451 10452 10453 10453 10453 10453 10453 10454 10454 10455 10455 10455 10456 10457
10521 10521 10521 10520 10517 10515 10513 10512 10510 10509 10506 10504 10501 10499 10497 10496 10494 10492 10490 10488 10486 10485 10483 10481 10480 10478 10477 10476 10475 10473 10471 10470 10468 10465 10463 10461 10459 10457 10455 10454 10452 10451 10450 10449 10448 10447 10446 10445 10444 10443 10442 10441 10440 10440 10438 10438 10437 10437 10436 10436 10436 10436 10436 10436 10436 10437 10438 10438 10439 10440 10440 10441 10442 10443 10444 10445 10445 10445 10446 10446 10446 10447 10447 10448 10448 10449
10514 10513 10511 10511 10510 10508 10505 10503 10503 10501 10500 10496 10493 10491 10489 10487 10485 10484 10482 10481 10479 10477 10475 10473 10471 10469 10468 10466 10465 10463 10461 10460 10458 10455 10453 10451 10450 10448 10446 10445 10443 10442 10441 10440 10438 10437 10436 10435 10435 10433 10433 10431 10431 10430 10429 10428 10427 10427 10427 10426 10426 10426 10426 10426 10427 10427 10428 10428 10429 10430 10431 10431 10432 10433 10435 10436 10436 10437 10438 10438 10438 10439 10440 10440 10440 10441
10507 10506 10504 10503 10502 10501 10498 10495 10493 10492 10492 10490 10486 10483 10481 10480 10478 10476 10474 10473 10471 10468 10466 10465 10462 10460 10457 10456 10455 10453 10451 10449 10447 10445 10443 10441 10440 10438 10437 10436 10434 10433 10431 10430 10429 10428 10427 10426 10425 10423 10422 10421 10420 10420 10419 10418 10418 10417 10417 10417 10417 10417 10417 10417 10417 10418 10418 10418 10420 10420 10421 10422 10423 10424 10425 10426 10427 10428 10429 10430 10430 10431 10431 10431 10432 10433
10500 10499 10497 10495 10494 10493 10491 10488 10484 10482 10482 10481 10478 10475 10473 10473 10471 10468 10466 10464 10461 10460 10458 10456 10453 10450 10448 10446 10444 10443 10441 10438 10436 10435 10433 10431 10430 10428 10428 10426 10425 10424 10423 10421 10420 10419 10418 10416 10415 10413 10412 10411 10410 10409 10408 10408 10408 10407 10407 10407 10407 10408 10408 10408 10408 10408 10408 10409 10410 10411 10411 10413 10413 10415 10416 10417 10418 10419 10420 10421 10421 10422 10423 10423 10424 10425
10492 10491 10490 10488 10486 10484 10483 10480 10477 10475 10473 10472 10470 10467 10465 10465 10464 10461 10458 10455 10453 10451 10449 10446 10444 10441 10439 10436 10434 10432 10431 10428 10426 10423 10422 10421 10420 10419 10418 10417 10416 10415 10413 10412 10411 10409 10408 10406 10405 10403 10402 10401 10400 10399 10398 10398 10398 10397 10397 10397 10397 10398 10398 10398 10399 10399 10399 10400 10400 10401 10402 10403 10404 10405 10406 10407 10408 10410 10411 10411 10412 10413 10414 10415 10416 10416
10485 10483 10481 10480 10477 10475 10473 10471 10469 10467 10466 10464 10461 10458 10456 10455 10455 10454 10451 10447 10445 10442 10440 10438 10435 10432 10430 10428 10425 10422 10420 10418 10416 10413 10411 10410 10410 10409 10408 10407 10406 10405 10404 10403 10401 10400 10398 10396 10395 10393 10392 10391 10390 10389 10388 10388 10387 10387 10387 10387 10387 10388 10388 10389 10390 10390 10390 10391 10391 10392 10393 10394 10395 10396 10396 10398 10400 10400 10401 10402 10403 10404 10405 10406 10407 10408
10477 10475 10473 10471 10469 10467 10465 10463 10461 10459 10457 10455 10453 10451 10448 10446 10445 10445 10443 10439 10436 10434 10433 10430 10426 10423 10421 10418 10416 10413 10410 10408 10405 10403 10402 10400 10399 10398 10398 10396 10396 10395 10394 10393 10391 10389 10388 10386 10385 10384 10383 10381 10380 10380 10378 10378 10378 10377 10377 10377 10378 10378 10379 10380 10380 10381 10381 10382 10382 10383 10383 10385 10386 10386 10388 10389 10390 10391 10393 10393 10395 10395 10396 10397 10398 10400
10469 10467 10465 10463 10461 10459 10458 10456 10453 10451 10448 10446 10445 10442 10440 10438 10436 10435 10433 10430 10427 10425 10425 10422 10418 10414 10411 10409 10406 10404 10401 10398 10396 10394 10392 10390 10388 10387 10387 10386 10384 10383 10383 10383 10381 10378 10377 10377 10376 10374 10373 10373 10371 10370 10370 10369 10368 10368 10368 10368 10368 10368 10369 10370 10371 10371 10372 10373 10373 10374 10375 10375 10376 10378 10379 10380 10381 10382 10383 10385 10386 10387 10388 10389 10390 10391
10461 10459 10458 10455 10453 10451 10450 10448 10445 10443 10440 10438 10436 10434 10431 10429 10427 10425 10423 10421 10418 10416 10415 10413 10410 10406 10403 10400 10398 10395 10393 10390 10387 10385 10383 10381 10378 10377 10376 10376 10373 10371 10371 10371 10370 10368 10366 10366 10366 10365 10363 10363 10362 10361 10361 10360 10360 10359 10359 10359 10359 10359 10360 10360 10361 10362 10363 10364 10365 10365 10366 10366 10368 10368 10370 10371 10372 10373 10375 10376 10377 10378 10380 10381 10382 10383
10453 10451 10450 10447 10445 10443 10441 10440 10437 10435 10431 10430 10428 10426 10423 10420 10418 10415 10414 10411 10409 10406 10405 10403 10400 10396 10393 10390 10388 10387 10385 10381 10378 10376 10375 10373 10370 10367 10366 10366 10363 10360 10360 10360 10359 10356 10355 10355 10355 10354 10353 10353 10352 10351 10351 10351 10350 10350 10350 10350 10350 10350 10351 10351 10352 10353 10353 10354 10355 10356 10356 10358 10358 10360 10360 10361 10363 10365 10366 10367 10369 10370 10371 10373 10374 10375
10446 10444 10441 10440 10437 10435 10433 10431 10429 10426 10423 10421 10419 10416 10414 10411 10408 10406 10404 10401 10400 10397 10395 10393 10391 10388 10384 10380 10377 10376 10376 10375 10371 10368 10366 10366 10362 10358 10356 10356 10354 10350 10349 10349 10348 10346 10345 10344 10343 10342 10342 10341 10341 10341 10341 10340 10340 10340 10341 10341 10341 10341 10341 10342 10343 10343 10343 10345 10345 10346 10347 10348 10350 10350 10351 10353 10354 10355 10357 10358 10360 10362 10363 10365 10366 10368
10438 10436 10434 10431 10429 10426 10425 10423 10420 10418 10415 10413 10410 10408 10405 10402 10400 10397 10395 10392 10390 10388 10385 10383 10381 10378 10375 10371 10366 10364 10365 10366 10364 10360 10357 10356 10353 10350 10347 10347 10345 10342 10340 10339 10338 10336 10334 10333 10332 10331 10331 10330 10330 10329 10329 10329 10330 10330 10330 10331 10331 10332 10333 10333 10333 10334 10334 10335 10335 10336 10337 10338 10340 10341 10342 10343 10345 10346 10348 10350 10351 10353 10355 10356 10358 10360
10430 10428 10426 10423 10421 10418 10416 10414 10411 10409 10406 10404 10401 10399 10396 10392 10390 10388 10385 10382 10380 10378 10375 10373 10370 10367 10365 10362 10358 10355 10355 10357 10356 10351 10348 10346 10344 10341 10338 10338 10336 10333 10330 10329 10328 10326 10324 10323 10322 10321 10320 10319 10318 10318 10318 10318 10318 10319 10320 10320 10321 10322 10323 10323 10324 10325 10325 10325 10326 10326 10328 10329 10330 10331 10333 10334 10336 10337 10339 10341 10343 10345 10346 10348 10350 10351
10422 10420 10418 10416 10414 10411 10408 10405 10403 10401 10398 10395 10393 10390 10387 10383 10380 10378 10375 10372 10370 10368 10365 10363 10360 10357 10353 10351 10348 10345 10345 10346 10346 10343 10338 10338 10336 10332 10328 10328 10328 10325 10320 10318 10317 10316 10314 10313 10311 10310 10309 10308 10307 10306 10306 10306 10307 10308 10308 10310 10310 10311 10313 10313 10315 10315 10316 10316 10317 10317 10318 10319 10320 10321 10323 10325 10326 10328 10330 10331 10333 10336 10338 10340 10341 10343
10415 10411 10410 10408 10406 10403 10399 10396 10394 10392 10390 10387 10385 10381 10378 10375 10372 10369 10366 10363 10361 10358 10355 10353 10351 10347 10344 10342 10339 10335 10334 10336 10336 10333 10330 10328 10326 10323 10319 10320 10319 10316 10311 10308 10306 10305 10304 10302 10300 10298 10297 10296 10295 10295 10294 10295 10295 10296 10297 10298 10300 10301 10301 10303 10304 10305 10306 10306 10307 10308 10309 10310 10311 10312 10313 10315 10316 10318 10320 10322 10325 10326 10328 10331 10333 10335
10408 10404 10401 10400 10398 10395 10391 10388 10385 10383 10381 10379 10376 10373 10369 10366 10364 10361 10357 10355 10353 10350 10347 10344 10341 10338 10335 10332 10329 10325 10324 10325 10325 10324 10321 10320 10317 10313 10309 10310 10310 10307 10301 10298 10295 10295 10293 10291 10289 10286 10285 10284 10283 10282 10282 10282 10283 10284 10285 10286 10288 10289 10290 10291 10292 10293 10295 10296 10297 10298 10300 10301 10301 10303 10304 10305 10306 10308 10310 10313 10315 10317 10320 10322 10324 10326
10400 10397 10394 10391 10390 10387 10384 10380 10377 10375 10372 10370 10368 10365 10361 10359 10356 10353 10349 10346 10344 10342 10339 10335 10332 10329 10325 10322 10320 10316 10314 10313 10314 10314 10313 10311 10308 10303 10300 10300 10300 10297 10291 10287 10285 10285 10283 10280 10277 10275 10273 10272 10270 10270 10269 10270 10270 10271 10271 10273 10274 10276 10277 10278 10280 10281 10283 10285 10286 10288 10289 10291 10292 10293 10295 10296 10297 10298 10300 10303 10305 10308 10310 10313 10315 10317
10393 10390 10386 10384 10381 10379 10376 10373 10370 10367 10365 10362 10360 10356 10353 10351 10348 10345 10341 10339 10336 10333 10330 10327 10323 10320 10315 10312 10310 10307 10303 10301 10303 10304 10304 10301 10298 10294 10291 10290 10289 10286 10281 10277 10275 10275 10273 10269 10265 10263 10262 10261 10258 10257 10256 10256 10256 10256 10257 10258 10260 10261 10263 10265 10266 10268 10270 10272 10274 10276 10278 10280 10281 10283 10285 10286 10288 10289 10291 10293 10295 10298 10301 10303 10306 10308
10385 10382 10379 10376 10373 10371 10368 10365 10362 10359 10356 10354 10351 10348 10345 10342 10339 10336 10333 10330 10327 10325 10321 10318 10315 10310 10305 10302 10300 10296 10292 10290 10291 10293 10293 10290 10288 10284 10280 10278 10277 10275 10271 10266 10263 10263 10263 10259 10254 10251 10250 10250 10248 10245 10244 10244 10244 10243 10243 10244 10245 10246 10248 10250 10252 10255 10256 10259 10261 10263 10265 10267 10269 10271 10273 10275 10277 10279 10281 10283 10285 10288 10291 10294 10296 10299
10376 10374 10371 10368 10365 10363 10360 10356 10354 10351 10348 10345 10343 10340 10336 10333 10330 10326 10322 10319 10316 10315 10311 10308 10304 10300 10296 10293 10289 10285 10280 10278 10278 10280 10280 10279 10276 10272 10268 10265 10265 10265 10261 10255 10251 10251 10251 10248 10242 10238 10238 10238 10236 10234 10232 10232 10231 10230 10229 10230 10231 10232 10233 10235 10238 10239 10242 10245 10247 10250 10251 10254 10256 10258 10260 10263 10265 10267 10270 10272 10275 10278 10281 10283 10286 10289
10368 10365 10363 10360 10357 10354 10351 10348 10345 10342 10339 10336 10333 10330 10327 10323 10320 10316 10311 10308 10306 10304 10301 10296 10292 10288 10285 10281 10278 10273 10269 10266 10265 10265 10266 10267 10265 10260 10254 10251 10251 10251 10248 10243 10239 10238 10238 10234 10230 10226 10225 10225 10224 10223 10221 10220 10219 10218 10217 10217 10218 10218 10219 10221 10223 10225 10228 10230 10233 10235 10238 10240 10242 10245 10247 10250 10252 10255 10258 10260 10263 10266 10270 10273 10275 10278
10360 10358 10355 10352 10349 10346 10343 10340 10336 10333 10330 10326 10323 10320 10317 10315 10311 10306 10301 10298 10296 10294 10290 10285 10281 10278 10275 10270 10265 10261 10258 10255 10253 10252 10253 10254 10251 10246 10240 10238 10238 10237 10234 10231 10228 10226 10224 10221 10218 10214 10213 10212 10211 10210 10209 10208 10207 10206 10206 10205 10205 10205 10206 10207 10208 10210 10213 10215 10218 10220 10223 10226 10228 10231 10233 10236 10238 10241 10245 10248 10251 10255 10258 10261 10265 10268
10353 10350 10346 10344 10341 10338 10335 10331 10327 10324 10321 10317 10314 10311 10308 10305 10302 10298 10293 10289 10286 10284 10280 10275 10271 10268 10265 10260 10255 10250 10246 10242 10241 10241 10242 10241 10236 10231 10226 10225 10224 10222 10219 10218 10216 10213 10209 10206 10204 10203 10201 10199 10198 10197 10196 10195 10194 10194 10194 10194 10193 10193 10193 10194 10194 10196 10198 10200 10203 10205 10208 10211 10213 10216 10219 10222 10225 10228 10231 10234 10238 10241 10245 10249 10253 10257
10344 10341 10338 10335 10333 10330 10326 10323 10319 10315 10312 10308 10305 10301 10298 10296 10293 10289 10285 10281 10278 10274 10270 10265 10261 10258 10254 10250 10245 10239 10234 10230 10229 10230 10231 10228 10223 10217 10213 10212 10209 10207 10204 10204 10203 10200 10195 10192 10191 10190 10189 10188 10185 10184 10183 10183 10182 10182 10182 10182 10181 10181 10181 10181 10182 10183 10184 10186 10188 10191 10193 10196 10199 10202 10204 10208 10211 10214 10217 10220 10224 10228 10231 10236 10241 10245
10335 10333 10330 10326 10323 10320 10317 10313 10310 10306 10302 10299 10295 10292 10289 10286 10282 10279 10275 10271 10267 10263 10259 10254 10250 10246 10242 10239 10234 10229 10223 10218 10218 10218 10219 10216 10210 10204 10201 10199 10196 10192 10190 10191 10191 10188 10183 10179 10177 10176 10176 10175 10173 10171 10170 10170 10170 10170 10170 10169 10169 10169 10169 10169 10170 10171 10172 10173 10174 10176 10179 10181 10184 10187 10190 10193 10197 10200 10203 10206 10210 10214 10218 10223 10228 10232
10326 10323 10320 10316 10313 10310 10306 10303 10300 10296 10292 10288 10285 10281 10278 10274 10271 10267 10263 10259 10255 10251 10246 10242 10237 10233 10229 10226 10222 10217 10211 10207 10206 10206 10206 10203 10198 10192 10188 10186 10183 10179 10177 10177 10177 10176 10172 10168 10164 10162 10161 10161 10160 10159 10158 10158 10158 10158 10158 10158 10157 10157 10156 10158 10159 10159 10161 10161 10162 10163 10165 10168 10170 10173 10176 10179 10183 10186 10189 10193 10196 10200 10204 10209 10214 10218
10318 10314 10311 10307 10303 10300 10296 10292 10288 10285 10280 10276 10273 10269 10265 10261 10257 10253 10250 10246 10241 10238 10233 10229 10224 10220 10216 10213 10209 10204 10200 10197 10194 10193 10192 10189 10184 10179 10176 10174 10171 10168 10165 10164 10163 10162 10160 10157 10153 10150 10149 10148 10147 10146 10146 10146 10146 10146 10146 10146 10145 10144 10144 10146 10147 10148 10149 10149 10151 10152 10153 10154 10157 10159 10162 10165 10168 10172 10175 10179 10183 10186 10191 10195 10199 10204
10310 10306 10301 10298 10293 10290 10285 10281 10278 10273 10269 10265 10261 10256 10252 10248 10244 10239 10236 10232 10228 10224 10220 10216 10212 10208 10203 10199 10196 10192 10189 10186 10184 10182 10180 10177 10173 10168 10164 10162 10159 10156 10154 10153 10151 10149 10148 10146 10143 10140 10138 10136 10134 10134 10134 10134 10134 10134 10134 10134 10133 10133 10133 10134 10135 10136 10137 10138 10139 10141 10141 10143 10144 10147 10149 10152 10154 10158 10161 10164 10168 10172 10176 10181 10186 10190
10301 10297 10293 10288 10284 10280 10275 10271 10266 10263 10258 10253 10249 10245 10240 10236 10231 10227 10223 10219 10215 10211 10208 10204 10200 10196 10193 10189 10185 10181 10177 10174 10172 10171 10168 10165 10161 10158 10154 10151 10148 10146 10144 10141 10139 10137 10136 10133 10131 10130 10128 10126 10123 10122 10122 10122 10122 10122 10122 10122 10121 10121 10121 10122 10123 10124 10126 10127 10128 10129 10130 10131 10133 10135 10137 10139 10142 10144 10148 10151 10154 10158 10163 10167 10171 10176
10293 10288 10284 10280 10275 10270 10265 10260 10256 10251 10246 10242 10237 10233 10229 10224 10219 10215 10211 10207 10203 10199 10196 10192 10189 10185 10182 10179 10175 10171 10167 10163 10161 10159 10156 10153 10151 10147 10144 10140 10138 10136 10134 10131 10128 10126 10124 10122 10120 10119 10118 10115 10113 10111 10110 10111 10111 10110 10109 10109 10109 10109 10109 10110 10111 10113 10114 10115 10116 10117 10118 10119 10121 10123 10125 10127 10129 10132 10134 10138 10141 10144 10148 10153 10157 10162
10285 10280 10275 10270 10266 10261 10255 10250 10245 10240 10235 10231 10226 10221 10217 10213 10208 10204 10199 10196 10192 10188 10184 10180 10177 10174 10171 10169 10166 10162 10158 10154 10151 10148 10145 10143 10139 10137 10133 10129 10127 10124 10123 10120 10118 10115 10114 10111 10109 10108 10106 10105 10103 10101 10100 10099 10099 10099 10098 10098 10098 10098 10098 10099 10100 10101 10102 10103 10104 10104 10106 10108 10109 10111 10113 10115 10117 10119 10122 10124 10128 10131 10134 10138 10143 10148
10276 10271 10266 10261 10256 10251 10245 10239 10234 10229 10224 10220 10215 10211 10206 10202 10198 10193 10189 10184 10181 10177 10173 10169 10166 10163 10160 10158 10155 10152 10149 10145 10141 10138 10135 10132 10129 10126 10123 10119 10116 10114 10112 10110 10108 10105 10103 10101 10099 10098 10096 10094 10093 10092 10090 10089 10089 10088 10088 10088 10088 10088 10088 10088 10089 10090 10091 10091 10092 10093 10094 10096 10098 10099 10101 10103 10105 10108 10109 10112 10114 10118 10121 10125 10129 10134
10266 10261 10256 10251 10246 10241 10235 10229 10224 10219 10214 10209 10205 10201 10196 10191 10187 10182 10178 10174 10170 10166 10162 10158 10155 10151 10149 10146 10144 10141 10138 10135 10131 10128 10125 10122 10119 10116 10113 10109 10106 10103 10101 10099 10098 10095 10093 10091 10089 10088 10086 10085 10084 10083 10081 10080 10079 10078 10078 10078 10078 10077 10076 10077 10078 10078 10079 10080 10081 10081 10083 10084 10086 10088 10089 10091 10094 10096 10098 10100 10103 10105 10109 10112 10116 10120
10258 10252 10246 10241 10236 10231 10226 10221 10215 10210 10205 10200 10196 10191 10186 10182 10177 10172 10168 10164 10160 10156 10153 10149 10145 10141 10139 10136 10133 10131 10128 10124 10121 10118 10115 10112 10109 10106 10103 10099 10096 10094 10091 10089 10088 10086 10084 10083 10081 10079 10078 10076 10075 10074 10073 10071 10070 10069 10069 10068 10067 10066 10066 10066 10066 10067 10068 10069 10070 10071 10072 10073 10075 10077 10078 10081 10083 10084 10086 10088 10091 10094 10096 10099 10103 10107
10249 10243 10238 10232 10227 10222 10217 10211 10206 10201 10196 10191 10187 10182 10178 10173 10168 10163 10158 10154 10150 10147 10143 10139 10136 10132 10129 10126 10124 10121 10118 10114 10111 10108 10105 10102 10099 10096 10093 10090 10088 10084 10083 10080 10078 10076 10075 10074 10072 10071 10069 10068 10067 10065 10064 10062 10061 10060 10059 10058 10057 10056 10056 10056 10055 10056 10058 10059 10060 10061 10062 10064 10065 10067 10068 10070 10072 10074 10076 10078 10079 10082 10084 10088 10091 10094
10240 10234 10229 10223 10218 10213 10208 10203 10198 10193 10188 10183 10179 10174 10169 10164 10159 10154 10149 10144 10141 10137 10134 10131 10127 10123 10119 10117 10114 10112 10109 10106 10102 10099 10096 10092 10089 10086 10083 10081 10078 10076 10074 10072 10069 10068 10066 10064 10063 10062 10061 10060 10059 10057 10055 10053 10051 10050 10049 10048 10048 10048 10047 10046 10046 10046 10048 10050 10051 10053 10053 10054 10056 10058 10059 10060 10061 10063 10064 10066 10068 10071 10073 10076 10079 10082
10232 10226 10221 10215 10210 10204 10199 10194 10189 10184 10180 10176 10171 10166 10162 10157 10152 10147 10141 10136 10133 10128 10125 10121 10118 10114 10111 10108 10105 10103 10100 10097 10094 10091 10087 10084 10081 10078 10075 10073 10070 10068 10066 10063 10061 10059 10058 10056 10054 10053 10053 10052 10051 10049 10046 10044 10043 10041 10040 10039 10039 10039 10039 10038 10038 10038 10039 10041 10043 10044 10044 10046 10047 10048 10049 10050 10051 10053 10054 10056 10058 10059 10062 10065 10068 10071
10224 10219 10213 10208 10202 10197 10191 10186 10182 10177 10173 10168 10163 10159 10154 10150 10145 10139 10134 10129 10125 10121 10117 10113 10109 10106 10103 10099 10096 10094 10091 10089 10086 10083 10079 10076 10073 10069 10067 10064 10062 10060 10058 10056 10053 10051 10049 10048 10047 10046 10045 10044 10043 10041 10038 10036 10034 10033 10032 10032 10032 10032 10031 10031 10031 10031 10031 10032 10033 10034 10036 10037 10038 10039 10040 10041 10041 10042 10043 10045 10047 10049 10051 10054 10057 10060
10218 10212 10206 10200 10195 10189 10184 10179 10174 10169 10165 10161 10156 10152 10148 10143 10138 10133 10128 10123 10118 10113 10109 10106 10103 10098 10094 10091 10089 10086 10083 10080 10078 10075 10072 10069 10065 10063 10059 10057 10054 10052 10050 10048 10046 10044 10042 10040 10039 10038 10038 10036 10034 10033 10030 10028 10027 10026 10025 10024 10024 10024 10024 10023 10023 10023 10023 10024 10024 10026 10027 10028 10029 10030 10031 10031 10031 10033 10034 10035 10037 10039 10041 10044 10046 10049
10211 10204 10199 10193 10188 10183 10178 10173 10168 10163 10158 10153 10149 10145 10140 10136 10131 10125 10121 10116 10111 10106 10103 10099 10096 10091 10088 10084 10081 10078 10075 10073 10070 10068 10064 10062 10059 10056 10053 10050 10048 10045 10043 10041 10039 10037 10036 10034 10033 10031 10031 10029 10027 10024 10023 10021 10021 10019 10018 10018 10017 10016 10016 10016 10016 10016 10016 10016 10016 10018 10019 10020 10021 10021 10022 10023 10023 10024 10024 10026 10027 10029 10031 10034 10036 10039
10203 10198 10191 10186 10181 10176 10171 10166 10161 10156 10151 10146 10142 10138 10133 10129 10124 10118 10114 10109 10104 10100 10096 10093 10089 10085 10081 10078 10074 10071 10068 10064 10062 10060 10058 10055 10052 10049 10047 10044 10041 10039 10036 10034 10032 10031 10029 10028 10026 10025 10024 10022 10019 10018 10016 10015 10014 10013 10012 10011 10010 10009 10009 10008 10009 10009 10009 10009 10009 10010 10011 10012 10013 10013 10014 10014 10015 10015 10016 10017 10018 10019 10022 10024 10026 10029
10196 10190 10184 10179 10174 10169 10164 10159 10154 10149 10144 10139 10135 10131 10126 10122 10117 10112 10107 10103 10098 10094 10090 10086 10083 10079 10075 10071 10068 10064 10061 10058 10055 10053 10050 10048 10045 10043 10041 10038 10035 10033 10031 10028 10026 10024 10023 10021 10020 10019 10018 10016 10014 10011 10009 10008 10008 10007 10006 10004 10003 10003 10002 10001 10002 10002 10003 10003 10003 10003 10004 10004 10005 10006 10006 10007 10007 10007 10008 10008 10009 10011 10013 10015 10018 10020
10189 10183 10178 10172 10167 10162 10156 10152 10147 10142 10137 10133 10128 10124 10119 10115 10111 10106 10101 10096 10092 10088 10084 10080 10076 10073 10069 10066 10062 10059 10056 10052 10049 10046 10044 10041 10039 10036 10034 10031 10029 10027 10024 10023 10021 10019 10017 10016 10014 10014 10013 10011 10008 10006 10004 10003 10002 10001 9999 9999 9998 9996 9996 9995 9995 9996 9996 9996 9996 9997 9997 9998 9998 9998 9999 9999 9999 9999 10000 10001 10002 10003 10005 10007 10009 10012
10181 10176 10171 10166 10160 10155 10150 10145 10140 10135 10131 10126 10121 10117 10113 10108 10104 10100 10096 10091 10086 10082 10078 10074 10071 10067 10063 10060 10056 10053 10050 10046 10043 10041 10038 10035 10033 10030 10028 10026 10023 10021 10019 10017 10015 10013 10011 10010 10009 10008 10008 10006 10003 10001 9999 9998 9996 9995 9994 9993 9992 9991 9990 9989 9989 9989 9990 9990 9990 9991 9991 9991 9991 9991 9992 9992 9992 9992 9993 9993 9994 9996 9998 10000 10002 10004
10174 10169 10164 10159 10154 10149 10143 10139 10134 10129 10124 10119 10115 10111 10106 10102 10098 10094 10089 10085 10081 10077 10073 10069 10065 10061 10058 10054 10051 10048 10044 10041 10038 10035 10033 10029 10027 10024 10022 10019 10018 10016 10013 10011 10009 10008 10006 10004 10003 10003 10002 10001 9999 9996 9994 9992 9991 9990 9989 9988 9987 9986 9985 9984 9984 9984 9984 9984 9984 9984 9985 9985 9985 9985 9986 9986 9986 9986 9986 9986 9988 9989 9991 9993 9996 9998